GFSNW_500_temp_132.txt.gz
Temp
-20 -20 -20 -21 -21 -21 -21 -21 -21 -21 -20 -20 -20 -19 -19 -18 -18 -19 -18 -18 -18 -18 -18 -19 -20 -19 -19 -18 -19 -19 -20 -20 -20 -21 -21 -21 -21 -21 -21 -21 -20 -21 -21 -21
-22 -20 -19 -21 -21 -21 -21 -20 -21 -21 -20 -20 -20 -20 -19 -19 -18 -18 -18 -18 -18 -18 -20 -20 -20 -20 -19 -19 -20 -20 -20 -21 -21 -21 -21 -21 -22 -21 -22 -21 -21 -21 -21 -21
-22 -21 -21 -21 -21 -21 -20 -21 -22 -21 -20 -20 -20 -19 -19 -19 -18 -19 -19 -19 -19 -20 -21 -20 -20 -20 -20 -20 -20 -20 -21 -21 -22 -22 -21 -21 -22 -22 -22 -21 -21 -21 -21 -21
-22 -21 -21 -20 -20 -20 -21 -21 -20 -20 -20 -20 -19 -20 -19 -19 -19 -20 -20 -20 -21 -22 -21 -20 -20 -20 -20 -20 -21 -21 -22 -22 -22 -22 -22 -23 -23 -23 -22 -21 -21 -21 -21 -21
-22 -21 -21 -21 -20 -20 -20 -20 -20 -20 -20 -20 -20 -20 -20 -20 -21 -21 -21 -22 -23 -22 -21 -21 -21 -21 -21 -21 -21 -22 -22 -22 -22 -23 -24 -24 -23 -22 -22 -22 -22 -22 -22 -22
-22 -21 -21 -21 -20 -20 -20 -20 -20 -20 -20 -20 -21 -21 -21 -22 -22 -22 -22 -23 -23 -22 -21 -21 -21 -21 -21 -21 -22 -22 -22 -22 -22 -23 -24 -23 -23 -23 -23 -23 -22 -22 -22 -22
-22 -22 -21 -21 -21 -20 -20 -20 -21 -21 -21 -22 -22 -23 -23 -22 -22 -23 -23 -23 -23 -22 -22 -22 -21 -21 -21 -22 -22 -22 -22 -23 -23 -23 -23 -23 -23 -23 -23 -23 -22 -22 -22 -22
-22 -22 -22 -21 -21 -20 -21 -20 -21 -22 -23 -23 -22 -23 -22 -22 -23 -23 -23 -23 -22 -22 -22 -22 -22 -21 -22 -22 -22 -22 -23 -23 -23 -23 -23 -23 -23 -23 -23 -23 -23 -22 -22 -22
-23 -23 -22 -21 -21 -21 -22 -22 -22 -22 -23 -23 -23 -23 -24 -23 -23 -24 -24 -23 -22 -22 -22 -22 -22 -22 -22 -22 -22 -22 -23 -23 -23 -23 -23 -23 -24 -24 -23 -23 -23 -23 -23 -23
-24 -23 -23 -23 -23 -23 -23 -23 -23 -23 -23 -24 -23 -24 -23 -23 -23 -24 -23 -23 -22 -22 -22 -22 -22 -22 -22 -22 -22 -22 -23 -23 -23 -23 -23 -23 -23 -24 -24 -23 -23 -23 -23 -23
-25 -25 -24 -23 -24 -25 -25 -24 -24 -24 -24 -25 -24 -24 -24 -24 -24 -24 -23 -23 -23 -22 -22 -22 -22 -22 -22 -22 -22 -22 -23 -23 -23 -23 -23 -23 -24 -24 -24 -24 -24 -24 -24 -24
-26 -26 -25 -25 -25 -26 -25 -25 -25 -25 -25 -25 -25 -24 -24 -24 -24 -24 -23 -23 -23 -23 -22 -22 -22 -22 -22 -22 -22 -22 -22 -23 -23 -23 -23 -24 -24 -24 -24 -25 -25 -25 -24 -24
-26 -26 -26 -26 -26 -26 -25 -26 -26 -25 -25 -25 -25 -24 -24 -24 -24 -24 -24 -23 -23 -22 -22 -22 -22 -22 -22 -22 -22 -23 -23 -23 -23 -23 -23 -24 -24 -24 -25 -25 -25 -25 -25 -25
-27 -27 -27 -27 -26 -26 -26 -26 -26 -26 -26 -25 -25 -25 -24 -24 -24 -24 -24 -23 -23 -23 -23 -22 -22 -22 -23 -23 -23 -23 -23 -23 -24 -23 -24 -24 -24 -25 -25 -25 -26 -26 -26 -26
-27 -27 -27 -26 -26 -26 -26 -26 -26 -26 -26 -25 -26 -25 -25 -24 -24 -24 -24 -24 -23 -23 -23 -23 -23 -23 -23 -23 -23 -23 -23 -24 -24 -24 -24 -24 -25 -25 -26 -26 -26 -27 -27 -26
-27 -27 -27 -27 -27 -27 -26 -27 -26 -26 -26 -26 -26 -25 -25 -24 -24 -24 -24 -24 -24 -23 -23 -23 -23 -23 -23 -23 -23 -24 -24 -24 -24 -24 -24 -25 -25 -26 -26 -27 -27 -27 -27 -27
-27 -27 -27 -27 -27 -27 -26 -26 -26 -26 -26 -26 -26 -25 -25 -25 -24 -24 -24 -24 -24 -24 -23 -23 -23 -24 -24 -24 -24 -24 -24 -24 -24 -25 -25 -25 -26 -26 -26 -27 -27 -27 -27 -27
-27 -27 -27 -27 -27 -27 -27 -27 -26 -26 -27 -26 -26 -26 -25 -25 -25 -25 -24 -24 -24 -24 -24 -24 -24 -24 -24 -24 -24 -24 -24 -25 -25 -25 -26 -26 -27 -27 -27 -27 -27 -27 -27 -27
-27 -27 -27 -27 -27 -27 -26 -26 -27 -27 -27 -26 -26 -26 -25 -25 -25 -25 -25 -24 -24 -24 -24 -24 -24 -24 -24 -24 -25 -25 -25 -26 -26 -26 -26 -27 -27 -27 -27 -27 -27 -27 -27 -27
-27 -27 -27 -27 -27 -27 -27 -27 -27 -28 -27 -26 -26 -26 -25 -25 -25 -25 -25 -25 -24 -24 -25 -25 -24 -24 -25 -25 -25 -26 -26 -26 -27 -27 -27 -27 -27 -27 -27 -27 -27 -27 -27 -27
-27 -27 -28 -28 -28 -28 -27 -27 -27 -26 -26 -26 -26 -25 -25 -25 -25 -25 -25 -25 -25 -25 -25 -25 -25 -25 -25 -25 -26 -26 -26 -27 -27 -27 -27 -27 -27 -27 -27 -27 -27 -27 -27 -27
-28 -28 -28 -28 -28 -27 -27 -27 -27 -26 -26 -26 -26 -26 -25 -25 -25 -25 -25 -25 -25 -25 -25 -25 -25 -25 -26 -26 -26 -27 -27 -27 -27 -27 -27 -27 -27 -27 -27 -27 -27 -27 -27 -27
-29 -28 -28 -28 -28 -27 -27 -26 -26 -26 -26 -26 -26 -26 -26 -26 -26 -26 -25 -25 -25 -25 -25 -25 -25 -26 -26 -27 -27 -27 -27 -27 -27 -27 -27 -27 -27 -27 -27 -27 -27 -27 -27 -27
-29 -29 -29 -28 -28 -28 -27 -27 -27 -26 -26 -26 -26 -26 -26 -26 -26 -26 -25 -26 -26 -26 -26 -25 -26 -26 -26 -27 -27 -27 -27 -27 -27 -27 -27 -27 -27 -27 -27 -27 -27 -27 -27 -27
-30 -29 -29 -29 -28 -28 -27 -27 -27 -27 -27 -27 -27 -26 -26 -26 -26 -26 -26 -26 -26 -26 -26 -26 -26 -27 -27 -27 -27 -27 -27 -27 -27 -27 -27 -27 -27 -27 -27 -27 -27 -27 -27 -27
-30 -30 -30 -29 -29 -28 -28 -28 -27 -27 -27 -27 -27 -27 -27 -26 -26 -26 -26 -26 -27 -26 -26 -26 -27 -27 -27 -27 -27 -27 -27 -27 -27 -27 -27 -27 -27 -27 -27 -27 -27 -27 -28 -28
-31 -30 -30 -30 -29 -29 -29 -28 -28 -28 -27 -27 -27 -27 -27 -27 -27 -27 -27 -27 -26 -26 -27 -27 -27 -27 -27 -27 -27 -27 -27 -27 -27 -27 -27 -27 -27 -27 -27 -27 -28 -28 -28 -28

GFSNW_500_temp_138.txt.gz
Temp
-23 -23 -22 -22 -21 -21 -21 -21 -22 -22 -22 -22 -22 -22 -21 -21 -21 -21 -21 -20 -19 -19 -18 -18 -18 -18 -18 -17 -17 -17 -17 -18 -18 -19 -18 -19 -19 -19 -19 -20 -20 -20 -21 -20
-23 -23 -22 -22 -19 -20 -21 -21 -21 -22 -22 -22 -22 -22 -22 -22 -22 -21 -21 -20 -20 -19 -18 -19 -18 -18 -18 -18 -18 -18 -19 -18 -19 -18 -18 -19 -19 -19 -20 -20 -20 -21 -21 -21
-23 -23 -22 -20 -20 -20 -21 -21 -21 -22 -22 -22 -22 -22 -22 -22 -22 -21 -21 -20 -20 -20 -19 -19 -19 -19 -19 -19 -18 -19 -20 -20 -19 -19 -19 -19 -19 -19 -19 -20 -21 -21 -22 -21
-23 -23 -23 -21 -21 -21 -21 -21 -20 -21 -21 -21 -21 -22 -22 -22 -22 -21 -21 -21 -21 -21 -20 -20 -20 -19 -19 -19 -19 -20 -20 -20 -20 -20 -20 -20 -20 -20 -20 -21 -23 -23 -22 -22
-23 -24 -23 -22 -21 -21 -21 -20 -20 -21 -21 -21 -21 -21 -22 -22 -21 -21 -21 -21 -20 -20 -20 -20 -20 -20 -19 -20 -21 -20 -20 -20 -20 -20 -20 -20 -20 -21 -21 -22 -22 -22 -22 -22
-23 -24 -23 -22 -22 -22 -21 -21 -21 -22 -21 -22 -22 -21 -21 -21 -21 -21 -21 -21 -20 -20 -20 -20 -20 -20 -21 -22 -21 -21 -21 -20 -20 -20 -20 -21 -21 -22 -22 -22 -22 -22 -22 -22
-23 -23 -23 -22 -22 -22 -21 -21 -20 -21 -21 -21 -22 -22 -22 -22 -21 -21 -21 -21 -20 -19 -20 -20 -21 -21 -23 -23 -22 -22 -21 -21 -21 -21 -21 -21 -21 -21 -22 -22 -22 -22 -23 -22
-23 -23 -23 -22 -22 -21 -22 -21 -21 -21 -21 -21 -21 -21 -22 -22 -22 -21 -21 -21 -20 -20 -22 -22 -22 -22 -24 -23 -22 -22 -21 -21 -21 -21 -21 -21 -21 -22 -22 -22 -22 -22 -22 -22
-23 -23 -23 -22 -22 -21 -21 -21 -21 -21 -21 -21 -21 -21 -21 -21 -22 -22 -22 -22 -22 -22 -22 -22 -23 -23 -23 -22 -22 -22 -21 -22 -21 -21 -22 -22 -21 -22 -22 -22 -22 -22 -23 -22
-24 -23 -23 -22 -22 -22 -21 -21 -21 -21 -21 -21 -21 -21 -21 -22 -22 -22 -22 -22 -22 -22 -23 -24 -24 -24 -23 -22 -22 -22 -22 -22 -21 -22 -22 -21 -22 -22 -22 -22 -22 -22 -23 -23
-24 -23 -23 -22 -22 -22 -21 -21 -21 -21 -21 -20 -21 -22 -23 -22 -22 -22 -22 -22 -22 -23 -23 -24 -24 -23 -23 -22 -22 -22 -22 -22 -21 -22 -22 -21 -22 -22 -22 -23 -23 -23 -23 -23
-24 -24 -23 -23 -23 -23 -22 -22 -22 -21 -21 -21 -22 -22 -21 -21 -21 -22 -23 -23 -24 -24 -24 -24 -24 -23 -22 -22 -22 -22 -22 -21 -21 -22 -22 -22 -22 -22 -23 -23 -23 -23 -23 -23
-24 -24 -24 -24 -24 -24 -24 -23 -23 -22 -21 -21 -23 -23 -23 -23 -23 -24 -23 -23 -24 -24 -24 -24 -23 -23 -23 -22 -22 -22 -22 -22 -22 -22 -22 -22 -22 -23 -23 -23 -23 -23 -24 -24
-24 -25 -26 -25 -25 -24 -24 -23 -23 -22 -23 -22 -22 -23 -23 -24 -24 -23 -24 -24 -24 -25 -24 -24 -23 -23 -23 -22 -22 -22 -22 -22 -22 -22 -22 -22 -23 -23 -23 -23 -24 -24 -25 -25
-25 -26 -27 -26 -25 -25 -24 -24 -24 -24 -23 -23 -23 -23 -23 -24 -24 -24 -24 -24 -23 -24 -24 -23 -23 -22 -23 -22 -22 -22 -22 -22 -22 -23 -23 -23 -23 -23 -24 -24 -25 -25 -25 -26
-26 -27 -26 -26 -25 -25 -25 -24 -24 -25 -25 -24 -24 -24 -24 -24 -24 -24 -24 -24 -24 -24 -24 -23 -23 -23 -23 -22 -22 -22 -22 -23 -23 -23 -23 -23 -23 -24 -24 -25 -25 -26 -26 -26
-26 -26 -27 -26 -25 -25 -25 -25 -25 -25 -25 -25 -25 -25 -25 -25 -24 -24 -24 -24 -24 -24 -24 -23 -23 -23 -23 -23 -22 -23 -23 -23 -23 -23 -23 -23 -24 -24 -25 -25 -25 -26 -26 -27
-27 -27 -26 -26 -26 -26 -26 -26 -26 -25 -25 -25 -25 -25 -25 -25 -24 -24 -24 -24 -24 -24 -24 -24 -23 -23 -23 -23 -23 -23 -23 -23 -23 -23 -23 -24 -25 -25 -26 -26 -26 -27 -27 -27
-27 -27 -27 -27 -26 -26 -26 -26 -26 -26 -26 -26 -26 -25 -25 -25 -24 -24 -24 -24 -24 -24 -24 -24 -24 -24 -23 -23 -23 -23 -23 -23 -23 -23 -24 -25 -26 -26 -26 -27 -27 -27 -27 -27
-27 -27 -27 -27 -26 -26 -26 -26 -26 -26 -26 -26 -26 -26 -25 -25 -25 -24 -24 -24 -24 -24 -24 -24 -24 -24 -23 -23 -23 -23 -23 -23 -24 -24 -25 -26 -26 -27 -27 -27 -27 -26 -26 -26
-27 -27 -27 -27 -27 -27 -26 -26 -26 -26 -26 -26 -26 -26 -26 -25 -25 -25 -25 -24 -24 -24 -24 -24 -24 -24 -23 -23 -23 -23 -24 -24 -24 -25 -26 -27 -27 -27 -26 -26 -26 -26 -26 -26
-28 -27 -27 -27 -27 -27 -27 -26 -26 -26 -26 -26 -26 -26 -26 -25 -25 -25 -25 -25 -24 -24 -24 -24 -24 -24 -24 -24 -23 -24 -24 -24 -25 -26 -27 -27 -27 -26 -26 -26 -26 -26 -26 -26
-28 -28 -27 -27 -27 -27 -27 -26 -26 -27 -27 -27 -27 -26 -26 -25 -25 -25 -25 -25 -25 -25 -24 -24 -24 -24 -24 -24 -24 -24 -24 -25 -26 -26 -27 -27 -27 -26 -26 -26 -26 -26 -26 -26
-28 -27 -27 -27 -27 -27 -27 -27 -27 -27 -27 -27 -26 -26 -26 -26 -25 -25 -25 -25 -25 -25 -24 -24 -24 -24 -24 -24 -24 -24 -25 -26 -26 -27 -27 -27 -26 -26 -26 -26 -26 -26 -26 -26
-28 -28 -28 -27 -28 -28 -27 -27 -27 -27 -27 -27 -26 -26 -26 -26 -25 -25 -25 -25 -25 -25 -25 -25 -25 -24 -24 -24 -24 -25 -25 -26 -26 -27 -27 -27 -26 -26 -26 -26 -26 -26 -26 -26
-29 -29 -28 -28 -28 -28 -27 -27 -27 -27 -27 -27 -26 -26 -26 -26 -26 -26 -26 -25 -25 -25 -25 -25 -25 -25 -24 -25 -25 -25 -26 -26 -27 -27 -27 -27 -26 -26 -26 -26 -26 -26 -26 -27
-29 -29 -28 -28 -28 -28 -27 -27 -27 -27 -27 -27 -27 -26 -26 -26 -26 -26 -26 -26 -26 -26 -25 -25 -25 -25 -25 -25 -25 -26 -26 -26 -27 -27 -27 -27 -26 -26 -26 -26 -26 -27 -27 -27

GFSNW_500_temp_141.txt.gz
Temp
-21 -21 -21 -23 -23 -23 -23 -23 -23 -22 -22 -23 -22 -22 -21 -22 -22 -22 -22 -22 -21 -21 -20 -20 -20 -19 -19 -19 -18 -18 -18 -19 -18 -17 -18 -18 -18 -18 -18 -18 -19 -19 -19 -18
-22 -22 -22 -23 -23 -23 -22 -23 -22 -22 -22 -23 -22 -22 -22 -22 -22 -22 -22 -22 -22 -22 -22 -21 -20 -20 -19 -19 -18 -18 -18 -18 -19 -18 -18 -19 -19 -18 -19 -18 -19 -20 -20 -19
-22 -22 -22 -23 -23 -23 -22 -22 -22 -22 -22 -22 -22 -22 -22 -22 -22 -23 -23 -23 -23 -22 -22 -21 -20 -20 -19 -18 -18 -18 -18 -19 -19 -19 -19 -19 -20 -19 -19 -19 -19 -19 -19 -20
-22 -23 -23 -23 -22 -22 -22 -21 -22 -20 -21 -21 -21 -22 -22 -22 -22 -23 -23 -23 -23 -22 -22 -21 -21 -21 -20 -19 -19 -19 -19 -19 -20 -20 -20 -20 -19 -19 -19 -19 -20 -20 -20 -22
-23 -23 -23 -23 -22 -22 -22 -22 -21 -21 -21 -22 -21 -22 -22 -22 -23 -23 -23 -22 -22 -22 -21 -21 -21 -20 -20 -20 -20 -20 -20 -21 -22 -20 -20 -20 -20 -20 -20 -20 -20 -21 -21 -22
-23 -23 -23 -23 -23 -22 -23 -22 -22 -21 -22 -21 -22 -22 -22 -22 -22 -22 -22 -22 -22 -22 -22 -21 -20 -21 -21 -21 -21 -22 -22 -21 -21 -21 -20 -20 -20 -20 -20 -21 -21 -22 -22 -22
-24 -23 -23 -23 -23 -23 -22 -23 -22 -22 -22 -21 -22 -22 -22 -22 -22 -22 -22 -22 -22 -21 -21 -21 -21 -21 -21 -21 -21 -22 -22 -22 -21 -21 -21 -20 -20 -20 -21 -21 -21 -22 -22 -22
-24 -23 -23 -24 -23 -23 -23 -23 -22 -22 -22 -23 -22 -22 -22 -22 -22 -22 -22 -22 -22 -21 -21 -21 -22 -22 -22 -21 -21 -23 -22 -22 -22 -21 -21 -20 -20 -21 -21 -21 -22 -22 -22 -23
-24 -23 -23 -24 -23 -23 -23 -23 -23 -22 -22 -22 -21 -21 -22 -22 -22 -22 -22 -22 -22 -22 -22 -21 -22 -22 -21 -22 -23 -23 -22 -23 -22 -21 -21 -21 -20 -21 -21 -21 -22 -22 -22 -22
-24 -23 -23 -24 -23 -23 -22 -22 -22 -22 -22 -22 -21 -21 -21 -21 -21 -22 -22 -22 -22 -22 -22 -22 -22 -22 -23 -23 -23 -23 -23 -22 -22 -21 -21 -21 -20 -21 -21 -22 -22 -22 -22 -22
-24 -24 -23 -24 -23 -23 -23 -22 -22 -21 -22 -21 -21 -21 -21 -21 -21 -22 -22 -22 -22 -22 -23 -23 -23 -24 -24 -24 -24 -23 -23 -22 -22 -22 -21 -21 -21 -22 -22 -22 -22 -22 -22 -23
-24 -24 -23 -24 -23 -23 -23 -24 -22 -21 -21 -21 -21 -21 -21 -21 -22 -22 -22 -23 -23 -23 -23 -23 -23 -23 -23 -23 -23 -22 -22 -22 -21 -22 -22 -22 -22 -22 -22 -22 -22 -23 -23 -23
-24 -24 -24 -24 -24 -25 -24 -24 -24 -22 -21 -21 -21 -21 -21 -21 -22 -23 -23 -23 -23 -23 -23 -23 -23 -24 -23 -23 -23 -22 -22 -22 -22 -21 -22 -22 -22 -22 -22 -22 -23 -23 -23 -24
-24 -25 -24 -24 -25 -25 -25 -24 -25 -23 -22 -22 -22 -22 -23 -22 -23 -23 -24 -24 -24 -24 -24 -24 -24 -24 -23 -23 -22 -22 -22 -22 -22 -22 -22 -22 -22 -23 -23 -23 -23 -23 -24 -24
-25 -25 -25 -25 -25 -25 -25 -25 -25 -23 -23 -22 -22 -22 -22 -23 -23 -23 -24 -24 -24 -24 -25 -25 -24 -24 -24 -23 -22 -22 -22 -22 -22 -22 -22 -23 -23 -23 -23 -23 -24 -24 -25 -25
-26 -26 -26 -25 -26 -25 -25 -25 -25 -24 -24 -24 -23 -23 -23 -23 -24 -24 -24 -24 -24 -24 -25 -25 -24 -24 -23 -23 -22 -22 -22 -22 -22 -22 -23 -23 -23 -23 -23 -24 -24 -25 -25 -26
-27 -27 -27 -26 -26 -26 -25 -25 -25 -25 -24 -24 -24 -24 -24 -24 -24 -24 -24 -24 -24 -24 -24 -25 -24 -24 -23 -23 -23 -23 -22 -22 -23 -23 -23 -23 -23 -23 -24 -25 -25 -26 -26 -26
-26 -26 -26 -27 -26 -26 -26 -25 -25 -25 -25 -24 -25 -25 -24 -24 -24 -24 -24 -24 -25 -25 -24 -24 -24 -23 -23 -23 -23 -23 -23 -23 -23 -23 -23 -23 -23 -24 -25 -25 -26 -26 -26 -26
-26 -27 -27 -27 -26 -26 -26 -26 -26 -25 -25 -25 -25 -25 -24 -24 -25 -25 -24 -25 -25 -24 -24 -24 -24 -24 -23 -23 -23 -23 -23 -23 -23 -23 -23 -23 -24 -25 -25 -26 -26 -26 -26 -26
-26 -27 -27 -27 -26 -26 -26 -26 -26 -25 -25 -25 -25 -25 -25 -25 -25 -25 -25 -25 -25 -24 -24 -24 -24 -24 -24 -24 -23 -23 -23 -23 -23 -23 -23 -24 -25 -25 -26 -26 -26 -26 -26 -26
-27 -27 -27 -26 -26 -26 -26 -26 -26 -26 -26 -26 -26 -26 -26 -25 -25 -25 -25 -25 -24 -24 -24 -24 -24 -24 -24 -24 -23 -23 -23 -23 -23 -23 -24 -25 -25 -26 -26 -26 -26 -26 -26 -26
-27 -27 -27 -27 -26 -26 -26 -26 -26 -26 -26 -26 -26 -26 -25 -25 -25 -25 -25 -25 -24 -24 -24 -24 -24 -24 -24 -24 -23 -23 -23 -23 -23 -24 -25 -25 -26 -26 -26 -26 -26 -26 -26 -26
-28 -27 -27 -27 -27 -26 -26 -26 -26 -26 -26 -27 -27 -26 -26 -26 -25 -25 -25 -25 -24 -24 -25 -24 -24 -24 -24 -24 -24 -23 -23 -24 -24 -24 -25 -25 -26 -26 -26 -26 -26 -26 -26 -26
-28 -28 -28 -27 -27 -26 -26 -26 -27 -27 -27 -27 -27 -26 -26 -26 -26 -25 -25 -25 -25 -25 -25 -25 -25 -24 -24 -24 -24 -23 -24 -24 -24 -25 -26 -26 -26 -26 -26 -26 -26 -26 -26 -26
-28 -28 -28 -27 -27 -27 -27 -27 -27 -27 -27 -27 -26 -26 -26 -26 -26 -25 -25 -25 -25 -25 -25 -25 -25 -25 -24 -24 -24 -24 -24 -24 -25 -25 -26 -26 -26 -26 -26 -26 -26 -26 -26 -26
-28 -28 -28 -27 -27 -27 -27 -27 -27 -26 -26 -26 -26 -26 -26 -26 -26 -26 -26 -25 -25 -25 -25 -25 -25 -25 -24 -24 -24 -24 -24 -25 -25 -26 -26 -26 -27 -27 -26 -26 -26 -26 -26 -26
-29 -29 -28 -28 -28 -27 -27 -27 -27 -27 -27 -26 -26 -26 -26 -26 -26 -26 -26 -25 -26 -26 -25 -25 -25 -25 -25 -25 -24 -25 -25 -25 -25 -26 -26 -26 -27 -27 -26 -26 -26 -26 -26 -27

GFSNW_500_temp_144.txt.gz
Temp
-21 -22 -21 -21 -22 -23 -22 -22 -22 -21 -22 -24 -23 -22 -22 -22 -22 -23 -23 -23 -22 -22 -22 -22 -22 -22 -21 -20 -20 -19 -18 -18 -18 -18 -18 -18 -18 -18 -17 -18 -19 -19 -19 -18
-22 -22 -22 -21 -22 -23 -22 -23 -22 -22 -22 -23 -23 -23 -23 -23 -23 -23 -23 -23 -23 -23 -23 -22 -21 -22 -21 -21 -20 -20 -19 -19 -19 -18 -18 -18 -18 -18 -19 -19 -20 -19 -19 -19
-22 -22 -22 -22 -22 -22 -23 -22 -22 -22 -22 -22 -23 -23 -23 -23 -23 -23 -23 -23 -23 -23 -23 -22 -22 -21 -21 -21 -21 -21 -20 -19 -19 -19 -19 -20 -20 -19 -20 -20 -19 -19 -19 -19
-23 -23 -22 -22 -22 -22 -22 -22 -22 -23 -22 -21 -22 -22 -22 -22 -23 -23 -23 -23 -23 -23 -23 -22 -22 -22 -22 -21 -21 -21 -20 -20 -20 -19 -19 -20 -20 -20 -20 -20 -20 -20 -20 -20
-23 -23 -23 -23 -22 -22 -22 -22 -22 -22 -22 -22 -22 -22 -22 -23 -23 -23 -23 -23 -23 -23 -23 -22 -22 -22 -22 -21 -21 -21 -21 -20 -20 -20 -20 -21 -21 -20 -20 -20 -20 -19 -20 -20
-24 -24 -24 -23 -23 -22 -22 -23 -22 -22 -23 -23 -22 -21 -23 -22 -23 -23 -23 -23 -23 -23 -23 -23 -23 -22 -22 -22 -21 -22 -21 -21 -20 -21 -21 -22 -21 -20 -20 -20 -20 -20 -20 -20
-24 -24 -24 -23 -23 -23 -23 -22 -22 -22 -22 -22 -22 -22 -22 -22 -22 -23 -22 -23 -23 -22 -23 -23 -23 -22 -22 -22 -21 -21 -20 -21 -23 -22 -22 -21 -20 -21 -20 -20 -20 -21 -20 -20
-25 -25 -24 -24 -23 -23 -23 -22 -22 -22 -22 -23 -22 -22 -22 -22 -23 -22 -23 -22 -23 -23 -23 -23 -22 -22 -21 -21 -21 -22 -22 -22 -23 -22 -22 -21 -21 -21 -21 -21 -21 -21 -21 -21
-25 -25 -24 -24 -23 -23 -23 -23 -22 -22 -22 -22 -23 -22 -22 -22 -22 -22 -22 -23 -23 -22 -22 -22 -22 -21 -21 -22 -22 -22 -22 -22 -23 -23 -22 -22 -21 -21 -21 -21 -21 -21 -21 -21
-25 -25 -24 -24 -23 -23 -23 -22 -22 -22 -23 -23 -22 -22 -22 -22 -22 -22 -22 -22 -22 -23 -23 -22 -22 -22 -22 -22 -22 -22 -22 -23 -23 -22 -22 -22 -21 -21 -21 -21 -21 -22 -22 -22
-25 -25 -24 -24 -23 -23 -23 -22 -22 -21 -21 -22 -22 -22 -22 -22 -22 -22 -22 -22 -22 -23 -22 -22 -22 -23 -23 -23 -23 -23 -24 -24 -23 -23 -22 -22 -21 -22 -22 -21 -22 -22 -22 -22
-26 -25 -24 -24 -23 -23 -23 -22 -22 -22 -22 -22 -22 -22 -21 -22 -22 -22 -22 -22 -23 -23 -23 -23 -23 -23 -23 -23 -23 -24 -24 -24 -23 -23 -22 -22 -22 -22 -22 -22 -22 -22 -22 -23
-26 -25 -24 -24 -23 -24 -23 -22 -22 -22 -22 -22 -22 -22 -22 -22 -22 -22 -22 -23 -23 -23 -23 -24 -24 -23 -23 -23 -23 -23 -23 -23 -23 -22 -22 -22 -22 -22 -22 -22 -22 -22 -23 -23
-26 -25 -24 -24 -24 -24 -24 -24 -23 -22 -22 -22 -22 -22 -22 -22 -22 -23 -23 -23 -24 -24 -24 -24 -24 -23 -23 -23 -24 -24 -23 -23 -22 -22 -22 -22 -22 -22 -22 -22 -22 -23 -23 -24
-26 -25 -25 -25 -25 -25 -25 -25 -24 -23 -23 -22 -21 -21 -22 -22 -23 -23 -23 -23 -24 -24 -24 -24 -24 -23 -23 -23 -23 -23 -23 -23 -23 -22 -22 -22 -22 -22 -22 -23 -23 -23 -24 -24
-25 -25 -25 -25 -25 -25 -25 -25 -25 -24 -23 -23 -23 -23 -23 -23 -23 -23 -23 -23 -23 -24 -24 -24 -24 -24 -24 -23 -24 -23 -23 -23 -22 -22 -22 -22 -22 -22 -23 -23 -23 -24 -25 -25
-26 -26 -26 -25 -26 -26 -25 -25 -24 -24 -24 -24 -24 -24 -23 -23 -24 -24 -24 -24 -24 -24 -24 -24 -24 -24 -24 -24 -24 -24 -23 -23 -22 -22 -22 -23 -23 -23 -23 -23 -24 -25 -26 -26
-26 -26 -25 -26 -26 -25 -25 -25 -25 -25 -25 -25 -24 -24 -24 -24 -24 -24 -24 -24 -24 -24 -24 -24 -24 -24 -24 -23 -24 -23 -23 -23 -23 -22 -23 -23 -23 -23 -24 -24 -25 -26 -26 -26
-26 -26 -26 -26 -26 -26 -26 -26 -25 -25 -25 -24 -25 -25 -25 -24 -24 -24 -24 -25 -25 -25 -24 -25 -25 -24 -24 -24 -23 -24 -23 -23 -23 -23 -23 -23 -23 -23 -24 -25 -25 -25 -26 -26
-27 -27 -27 -27 -27 -26 -26 -25 -25 -25 -25 -25 -24 -25 -25 -25 -25 -25 -25 -25 -25 -25 -25 -25 -24 -24 -24 -24 -24 -24 -24 -23 -23 -23 -23 -23 -23 -24 -25 -25 -25 -25 -25 -26
-27 -27 -27 -27 -27 -27 -26 -26 -26 -25 -25 -25 -25 -25 -25 -25 -25 -25 -25 -25 -25 -25 -25 -24 -24 -24 -24 -24 -24 -24 -24 -23 -23 -23 -23 -23 -24 -25 -25 -25 -25 -25 -25 -26
-27 -27 -27 -27 -27 -27 -27 -26 -26 -26 -26 -26 -26 -26 -25 -25 -25 -25 -25 -25 -24 -24 -25 -24 -24 -24 -24 -24 -24 -24 -24 -23 -23 -23 -23 -23 -24 -25 -25 -25 -25 -25 -26 -26
-27 -27 -27 -27 -27 -27 -26 -26 -26 -26 -26 -26 -26 -26 -26 -25 -25 -25 -25 -25 -24 -24 -24 -24 -24 -24 -24 -24 -24 -24 -24 -23 -23 -23 -23 -24 -25 -25 -26 -25 -25 -26 -26 -26
-27 -27 -27 -27 -26 -26 -26 -26 -26 -27 -26 -26 -26 -26 -26 -26 -25 -25 -25 -25 -25 -25 -24 -24 -25 -24 -25 -24 -24 -24 -24 -24 -24 -24 -24 -25 -25 -25 -26 -26 -26 -26 -26 -26
-28 -28 -27 -27 -27 -27 -27 -26 -27 -27 -27 -27 -27 -26 -26 -26 -26 -26 -25 -25 -25 -25 -25 -25 -25 -25 -25 -25 -24 -24 -24 -24 -24 -24 -25 -25 -26 -26 -26 -26 -26 -26 -26 -26
-28 -28 -28 -28 -27 -27 -27 -27 -27 -27 -27 -27 -27 -26 -26 -26 -26 -26 -26 -25 -25 -25 -25 -25 -25 -25 -25 -25 -25 -24 -24 -24 -24 -24 -25 -25 -26 -26 -26 -26 -26 -26 -26 -26
-29 -29 -28 -28 -27 -27 -27 -27 -27 -27 -27 -26 -26 -26 -26 -26 -26 -26 -26 -26 -26 -26 -26 -26 -26 -26 -25 -25 -25 -25 -24 -24 -24 -25 -25 -25 -26 -26 -26 -26 -26 -26 -26 -26

GFSNW_500_temp_147.txt.gz
Temp
-22 -22 -22 -22 -23 -23 -22 -22 -21 -21 -22 -22 -21 -20 -20 -21 -21 -22 -22 -23 -23 -23 -23 -23 -23 -22 -22 -22 -22 -21 -21 -20 -19 -18 -18 -18 -18 -18 -18 -18 -18 -19 -19 -18
-22 -22 -22 -22 -23 -23 -23 -22 -22 -21 -22 -21 -21 -21 -21 -22 -22 -23 -23 -24 -23 -24 -23 -23 -23 -22 -22 -23 -23 -22 -21 -21 -20 -19 -19 -19 -18 -18 -18 -19 -19 -19 -20 -19
-23 -23 -23 -23 -23 -23 -23 -23 -22 -21 -21 -21 -21 -22 -22 -22 -22 -23 -23 -23 -24 -24 -23 -23 -23 -22 -23 -22 -22 -22 -22 -22 -21 -20 -20 -20 -20 -19 -19 -20 -20 -21 -20 -19
-23 -23 -23 -23 -24 -23 -23 -23 -22 -22 -21 -21 -22 -22 -22 -22 -23 -23 -24 -23 -23 -24 -24 -23 -23 -23 -23 -23 -22 -22 -22 -21 -21 -21 -21 -21 -20 -20 -20 -20 -21 -21 -20 -20
-24 -23 -24 -23 -24 -23 -23 -22 -22 -22 -22 -22 -22 -22 -22 -23 -23 -23 -23 -23 -23 -24 -23 -23 -23 -23 -23 -23 -23 -22 -22 -22 -21 -21 -21 -21 -21 -20 -20 -21 -22 -21 -20 -20
-24 -24 -24 -23 -24 -23 -23 -23 -23 -23 -22 -22 -22 -22 -22 -23 -23 -23 -23 -23 -24 -23 -23 -23 -23 -23 -23 -23 -23 -22 -22 -22 -21 -21 -22 -22 -21 -20 -21 -22 -21 -21 -20 -20
-25 -25 -24 -24 -24 -24 -24 -24 -23 -23 -22 -22 -23 -23 -23 -22 -23 -23 -23 -23 -23 -23 -24 -24 -24 -23 -23 -23 -23 -22 -22 -22 -22 -22 -22 -22 -21 -22 -22 -21 -21 -20 -20 -20
-26 -25 -25 -25 -24 -24 -24 -24 -23 -23 -22 -23 -23 -23 -22 -22 -23 -23 -23 -23 -23 -23 -23 -24 -24 -23 -23 -23 -23 -23 -22 -22 -22 -22 -22 -21 -21 -22 -22 -22 -21 -21 -21 -21
-26 -26 -26 -25 -25 -25 -24 -24 -23 -23 -23 -23 -23 -23 -22 -23 -22 -22 -22 -23 -23 -23 -23 -23 -24 -23 -23 -22 -22 -22 -22 -22 -22 -22 -21 -21 -23 -22 -22 -21 -21 -21 -21 -21
-26 -26 -26 -25 -25 -25 -24 -24 -23 -23 -22 -23 -23 -23 -22 -22 -22 -22 -22 -23 -23 -23 -23 -23 -23 -23 -22 -22 -22 -23 -23 -22 -22 -22 -23 -23 -22 -22 -22 -22 -22 -21 -21 -21
-27 -27 -26 -26 -25 -24 -24 -23 -23 -23 -22 -23 -22 -23 -23 -23 -22 -22 -22 -22 -23 -23 -23 -23 -23 -23 -23 -23 -23 -23 -23 -23 -22 -23 -23 -23 -22 -23 -22 -22 -22 -22 -22 -21
-27 -26 -26 -25 -24 -24 -24 -23 -23 -23 -22 -22 -22 -22 -23 -23 -22 -22 -22 -22 -22 -22 -22 -23 -23 -23 -23 -23 -23 -23 -23 -22 -22 -23 -23 -23 -23 -23 -23 -22 -22 -22 -22 -22
-27 -26 -26 -25 -24 -24 -24 -24 -23 -22 -22 -22 -22 -21 -22 -22 -22 -22 -22 -22 -23 -23 -23 -23 -24 -24 -23 -24 -23 -24 -23 -23 -23 -24 -23 -23 -23 -22 -22 -22 -22 -22 -22 -22
-27 -26 -25 -25 -24 -24 -24 -24 -23 -22 -22 -22 -22 -22 -22 -22 -22 -22 -23 -23 -23 -24 -24 -24 -24 -24 -24 -23 -23 -23 -24 -24 -24 -24 -23 -23 -23 -22 -22 -22 -22 -22 -22 -23
-27 -26 -25 -25 -25 -24 -24 -24 -24 -22 -22 -21 -22 -22 -22 -22 -22 -22 -23 -23 -23 -23 -24 -24 -24 -24 -24 -24 -24 -24 -24 -24 -24 -23 -23 -23 -22 -22 -22 -22 -22 -22 -23 -23
-26 -26 -25 -26 -25 -25 -25 -24 -24 -24 -23 -22 -22 -22 -22 -22 -22 -22 -23 -23 -24 -23 -24 -24 -24 -24 -24 -24 -24 -24 -24 -24 -24 -23 -23 -23 -22 -22 -22 -22 -22 -23 -23 -24
-26 -26 -26 -26 -25 -25 -25 -25 -24 -24 -23 -23 -23 -23 -22 -22 -23 -23 -24 -23 -23 -24 -24 -24 -23 -24 -24 -24 -24 -24 -24 -24 -23 -23 -23 -22 -22 -22 -22 -22 -23 -23 -24 -25
-26 -26 -26 -26 -26 -26 -25 -25 -25 -24 -24 -24 -24 -23 -23 -23 -23 -24 -24 -24 -24 -24 -24 -24 -24 -24 -24 -24 -24 -24 -24 -24 -23 -23 -22 -22 -22 -22 -22 -23 -23 -24 -24 -25
-26 -26 -26 -26 -26 -26 -26 -25 -25 -25 -25 -25 -25 -24 -24 -24 -24 -24 -24 -24 -24 -24 -24 -24 -24 -24 -24 -24 -24 -24 -24 -23 -23 -23 -23 -23 -23 -22 -23 -23 -24 -24 -25 -25
-26 -26 -26 -26 -26 -26 -26 -26 -25 -25 -25 -25 -25 -25 -25 -24 -24 -24 -24 -24 -24 -24 -25 -25 -24 -24 -24 -24 -24 -24 -24 -24 -24 -23 -23 -23 -23 -23 -23 -23 -24 -25 -25 -25
-27 -27 -27 -26 -26 -26 -26 -26 -26 -25 -25 -25 -25 -24 -25 -24 -25 -24 -24 -24 -24 -24 -24 -24 -24 -24 -24 -24 -24 -24 -24 -24 -24 -24 -23 -23 -23 -23 -23 -24 -25 -25 -25 -25
-27 -27 -27 -27 -27 -26 -27 -26 -26 -25 -25 -25 -25 -25 -25 -25 -25 -24 -24 -24 -24 -24 -24 -24 -24 -25 -25 -25 -24 -24 -24 -24 -24 -23 -23 -23 -23 -23 -24 -24 -25 -25 -25 -25
-27 -27 -27 -27 -27 -27 -26 -26 -26 -26 -26 -26 -26 -25 -25 -25 -25 -25 -25 -25 -25 -24 -24 -24 -24 -25 -25 -25 -25 -25 -24 -24 -24 -24 -23 -23 -24 -24 -24 -25 -25 -25 -25 -25
-28 -27 -27 -27 -27 -27 -27 -26 -26 -26 -26 -26 -26 -25 -25 -25 -25 -25 -25 -25 -25 -24 -24 -24 -24 -24 -24 -25 -25 -25 -24 -24 -24 -24 -24 -24 -24 -24 -25 -25 -26 -26 -26 -26
-28 -28 -27 -27 -27 -27 -26 -27 -27 -27 -27 -27 -26 -26 -26 -26 -26 -25 -25 -25 -25 -24 -24 -24 -24 -25 -24 -24 -25 -25 -25 -24 -24 -24 -24 -24 -24 -24 -25 -25 -26 -26 -26 -26
-28 -27 -27 -27 -27 -27 -27 -27 -26 -27 -27 -27 -27 -27 -26 -26 -26 -26 -26 -25 -25 -25 -25 -25 -25 -25 -25 -25 -25 -25 -25 -25 -25 -24 -24 -24 -24 -24 -25 -25 -26 -26 -26 -26
-28 -28 -28 -27 -27 -27 -27 -27 -27 -27 -27 -27 -27 -26 -26 -26 -26 -26 -26 -26 -25 -25 -25 -25 -25 -26 -25 -25 -25 -26 -26 -25 -25 -25 -25 -25 -25 -25 -25 -26 -26 -26 -27 -27

GFSNW_500_temp_153.txt.gz
Temp
-23 -22 -22 -22 -22 -22 -22 -23 -22 -22 -22 -22 -21 -20 -21 -21 -21 -21 -21 -21 -21 -21 -21 -21 -21 -21 -21 -21 -21 -21 -22 -23 -21 -22 -22 -22 -22 -22 -22 -22 -21 -20 -20 -18
-24 -24 -23 -23 -22 -22 -23 -23 -22 -22 -22 -22 -21 -21 -21 -21 -21 -21 -21 -22 -22 -22 -21 -21 -21 -21 -21 -22 -22 -22 -23 -24 -23 -22 -23 -23 -23 -22 -22 -22 -21 -21 -21 -18
-24 -24 -24 -24 -24 -23 -23 -23 -23 -22 -22 -22 -22 -22 -22 -22 -22 -22 -22 -22 -22 -22 -22 -22 -21 -21 -22 -22 -23 -23 -24 -24 -23 -23 -23 -23 -23 -22 -22 -22 -21 -21 -20 -20
-24 -25 -25 -25 -24 -24 -23 -23 -22 -22 -22 -22 -22 -22 -22 -22 -22 -22 -22 -22 -22 -22 -21 -21 -22 -21 -22 -23 -23 -24 -24 -24 -24 -23 -23 -23 -23 -22 -23 -22 -21 -22 -21 -21
-25 -25 -25 -25 -25 -25 -24 -23 -23 -23 -22 -23 -23 -22 -22 -22 -23 -22 -22 -22 -23 -22 -21 -22 -21 -22 -22 -23 -23 -24 -24 -24 -24 -23 -23 -23 -22 -22 -23 -22 -21 -21 -21 -21
-25 -25 -26 -25 -25 -25 -24 -24 -24 -24 -23 -23 -23 -23 -23 -23 -23 -22 -22 -22 -22 -22 -23 -22 -21 -22 -22 -23 -23 -24 -24 -24 -23 -23 -23 -23 -22 -22 -23 -22 -22 -22 -21 -22
-26 -26 -26 -26 -25 -25 -25 -24 -25 -24 -24 -23 -23 -23 -23 -23 -23 -22 -22 -22 -22 -24 -22 -21 -22 -22 -23 -23 -23 -24 -23 -24 -24 -23 -23 -23 -22 -23 -23 -22 -22 -22 -21 -22
-27 -26 -26 -26 -26 -26 -25 -25 -25 -24 -24 -24 -23 -23 -23 -23 -23 -22 -22 -23 -22 -23 -22 -23 -23 -23 -23 -23 -23 -23 -23 -23 -24 -24 -23 -22 -22 -22 -22 -22 -22 -22 -22 -22
-27 -27 -27 -27 -26 -26 -26 -25 -25 -25 -24 -24 -24 -23 -23 -23 -23 -23 -23 -23 -23 -23 -23 -23 -23 -23 -23 -24 -23 -24 -24 -24 -24 -24 -23 -23 -22 -23 -23 -23 -23 -23 -23 -23
-27 -27 -27 -28 -27 -27 -26 -26 -25 -25 -24 -24 -24 -24 -23 -23 -23 -23 -23 -23 -24 -24 -24 -23 -23 -23 -23 -24 -24 -24 -24 -24 -23 -23 -23 -23 -23 -23 -23 -23 -23 -23 -24 -23
-27 -27 -27 -27 -27 -27 -27 -27 -26 -25 -24 -25 -24 -24 -24 -23 -24 -24 -23 -23 -23 -24 -23 -23 -23 -23 -23 -23 -24 -24 -24 -23 -23 -23 -23 -23 -23 -23 -24 -24 -24 -24 -24 -23
-27 -27 -27 -27 -27 -27 -27 -27 -26 -26 -25 -25 -25 -24 -24 -24 -24 -23 -23 -23 -23 -23 -23 -23 -24 -23 -23 -24 -23 -23 -23 -24 -24 -23 -23 -23 -23 -24 -24 -24 -23 -24 -23 -23
-28 -28 -27 -27 -27 -27 -26 -27 -26 -26 -25 -25 -25 -25 -24 -24 -24 -24 -23 -23 -23 -23 -24 -24 -23 -24 -24 -24 -24 -23 -23 -23 -24 -23 -23 -23 -23 -24 -24 -24 -23 -23 -23 -22
-28 -28 -27 -27 -27 -27 -27 -27 -26 -26 -25 -24 -25 -24 -24 -24 -24 -23 -23 -23 -23 -23 -23 -23 -24 -24 -23 -23 -23 -23 -23 -23 -23 -23 -23 -24 -24 -24 -24 -23 -23 -23 -23 -22
-29 -28 -28 -27 -27 -27 -26 -27 -26 -26 -25 -24 -24 -24 -24 -24 -23 -23 -23 -23 -23 -23 -24 -23 -23 -23 -23 -23 -23 -23 -23 -23 -23 -23 -23 -23 -23 -24 -24 -23 -23 -23 -22 -23
-29 -28 -28 -28 -28 -27 -27 -27 -26 -26 -25 -24 -24 -24 -24 -24 -23 -23 -23 -23 -23 -23 -23 -23 -24 -24 -24 -23 -23 -23 -23 -23 -23 -23 -24 -24 -24 -24 -23 -23 -23 -23 -23 -23
-29 -28 -28 -28 -28 -27 -27 -26 -26 -25 -25 -24 -25 -24 -24 -24 -23 -23 -23 -23 -23 -23 -24 -24 -24 -24 -24 -23 -23 -24 -24 -23 -24 -24 -24 -24 -23 -23 -23 -23 -23 -23 -23 -23
-29 -29 -29 -28 -28 -27 -26 -26 -26 -26 -25 -25 -25 -25 -24 -23 -23 -23 -23 -24 -24 -24 -24 -24 -24 -24 -24 -24 -24 -24 -24 -24 -24 -24 -24 -23 -23 -23 -23 -23 -23 -23 -23 -23
-28 -29 -28 -28 -27 -27 -26 -26 -26 -26 -25 -25 -25 -25 -24 -24 -24 -24 -24 -24 -24 -24 -24 -24 -24 -24 -24 -25 -24 -24 -24 -24 -24 -24 -24 -23 -23 -23 -23 -23 -23 -23 -23 -23
-29 -28 -28 -27 -27 -26 -26 -26 -26 -26 -26 -25 -25 -25 -24 -24 -24 -24 -24 -24 -24 -24 -24 -24 -24 -24 -25 -25 -24 -24 -24 -24 -24 -24 -24 -23 -23 -23 -24 -23 -23 -23 -23 -23
-28 -28 -27 -27 -27 -26 -26 -26 -26 -25 -25 -25 -25 -25 -25 -25 -25 -25 -25 -25 -24 -24 -25 -24 -25 -25 -25 -24 -24 -24 -24 -24 -24 -24 -24 -24 -23 -24 -24 -24 -23 -23 -23 -23
-28 -28 -27 -27 -27 -27 -26 -26 -26 -26 -25 -25 -25 -25 -25 -25 -25 -25 -25 -25 -25 -24 -24 -24 -25 -25 -25 -25 -24 -24 -24 -24 -24 -24 -24 -24 -24 -24 -24 -24 -23 -23 -23 -23
-28 -28 -27 -27 -27 -27 -26 -26 -26 -26 -26 -25 -25 -25 -25 -25 -25 -25 -25 -25 -25 -25 -25 -25 -25 -25 -25 -25 -24 -24 -24 -24 -24 -24 -24 -24 -24 -24 -24 -24 -24 -24 -23 -24
-28 -28 -27 -27 -27 -27 -26 -26 -26 -26 -26 -25 -26 -26 -26 -25 -25 -25 -25 -25 -25 -25 -25 -25 -25 -25 -25 -24 -24 -24 -24 -24 -24 -25 -24 -24 -25 -25 -25 -24 -24 -24 -24 -24
-28 -28 -27 -27 -27 -27 -27 -27 -26 -26 -26 -26 -26 -26 -26 -26 -26 -26 -26 -26 -26 -25 -25 -25 -25 -25 -25 -24 -24 -24 -24 -25 -25 -25 -25 -25 -25 -25 -25 -25 -25 -24 -24 -24
-28 -27 -27 -27 -28 -27 -27 -27 -27 -27 -26 -26 -26 -26 -26 -26 -26 -26 -26 -26 -26 -26 -25 -25 -25 -25 -25 -25 -25 -25 -25 -25 -25 -25 -25 -25 -25 -25 -26 -25 -25 -25 -25 -25
-28 -28 -28 -28 -28 -28 -28 -27 -27 -27 -27 -27 -27 -26 -26 -27 -26 -26 -26 -26 -26 -26 -26 -26 -26 -26 -26 -25 -25 -25 -25 -26 -26 -26 -26 -25 -26 -26 -26 -26 -26 -26 -25 -25